User: anonymous   Login
Location: Unspecified
(0.0000°N, 0.0000°E)
Time: 09:32:55
(UTC+02:00)
Language:

SeaSat 1 - Orbit

View from above orbital plane
View from above orbital plane
View from above satellite
View from above satellite

Ground track
Ground track

The orbit data is extracted from the following two-line orbital elements,

1 10967U 78064A   16183.84004818  .00000008  00000-0  42879-4 0  9992
2 10967 108.0006 287.4713 0001187 231.8234 128.2804 14.43558387996043
Epoch (UTC): 01 July 2016 20:09:40
Eccentricity: 0.0001187
inclination: 108.0006°
perigee height: 746 km
apogee height: 747 km
right ascension of ascending node: 287.4713°
argument of perigee: 231.8234°
revolutions per day: 14.43558387
mean anomaly at epoch: 128.2804°
orbit number at epoch: 99604

The dashed part of the orbit path shows where the satellite is in the earth's shadow,  

DLR